Regional Weather Roundup
Issued by NWS

Home | Current Version | Previous Version | Text Only | Print | Product List | Glossary On
Versions: 1 2 3 4 5 6 7 8 9 10 11 12 13 14 15 16 17 18 19 20 21 22 23 24 25 26 27 28 29 30 31 32 33 34 35 36 37 38 39 40 41 42 43 44 45 46 47 48 49 50
000
ASUS43 KDTX 202210
RWRMI
MICHIGAN HOURLY REGIONAL WEATHER ROUNDUP
NATIONAL WEATHER SERVICE DETROIT/PONTIAC MI
500 PM EST TUE FEB 20 2018

NOTE: "FAIR" INDICATES FEW OR NO CLOUDS BELOW 12,000 FEET WITH NO
SIGNIFICANT WEATHER AND/OR OBSTRUCTION TO VISIBILITY.

MIZ047>049-052>055-059>063-066>070-074>076-081>083-202300-
SOUTHEAST LOWER MICHIGAN

CITY           SKY/WX    TMP DP  RH WIND       PRES   REMARKS
ADRIAN         FAIR      61  58  90 SW9       29.99S
ALMA           RAIN      58  58 100 S16G22    29.87R
ANN ARBOR      CLOUDY    59  58  96 S6        29.98S
BAD AXE        DRIZZLE   56  56  99 S15       29.90S
CARO           RAIN      59  58  97 S14G20    29.90R
DETROIT CITY   CLOUDY    60  57  89 S9        29.98F
DETROIT        CLOUDY    60  58  92 S7        29.99S
FLINT          LGT RAIN  60  58  92 S14G23    29.93R FOG
GROSSE ILE     FOG       47  47  98 S7        29.99F VSB<1/4
HILLSDALE      LGT RAIN  61  57  88 S9        29.97S
HOWELL         RAIN      60  58  93 S12G20    29.95R

CITY           SKY/WX    TMP DP  RH WIND       PRES   REMARKS
JACKSON        LGT RAIN  62  59  90 S15G23    29.96R
LAMBERTVILLE   FAIR      65  59  82 S8        29.99S
LANSING        LGT RAIN  61  59  93 S17G25    29.92R
LAPEER         LGT RAIN  60  58  94 SW15G24   29.94S
MASON          LGT RAIN  62  57  83 S9G16     29.94R
MONROE         PTSUNNY   63  59  88 S9G16     29.99S
MT. CLEMENS    CLOUDY    57  57 100 S9        29.97F FOG
PONTIAC        LGT RAIN  59  58  96 S8G20     29.96S
PORT HOPE        N/A     59  55  87 S9G16     29.87R
PORT HURON     CLOUDY    57  55  94 S9        29.99S
TRI CITIES     LGT RAIN  58  56  93 S15       29.88R FOG
MIDLAND        RAIN      58  58  99 S13       29.85R
TROY           LGT RAIN  61  58  91 S7        30.00R
SAGINAW HB     RAIN      59  57  94 S18       29.88R
$$
MIZ043>046-050>051-056>058-064>065-071>073-077>080-202300-
SOUTHWEST LOWER MICHIGAN

CITY           SKY/WX    TMP DP  RH WIND       PRES   REMARKS
BATTLE CREEK   LGT RAIN  62  59  90 S18G25    29.93R
BENTON HARBOR  RAIN      54  52  93 W10       29.93R FOG
BIG RAPIDS     LGT RAIN  54  51  90 SW7       29.87R
COLDWATER      LGT RAIN  62  62 100 S9G22     29.96R
FREMONT        RAIN      52  51  96 SW8       29.88R
HOLLAND        RAIN      53  52  96 W9        29.91R FOG
GRAND RAPIDS   HVY RAIN  62  60  93 W20G26    29.90R VSB 3/4
IONIA          HVY RAIN  60  60  97 S13       29.88R
KALAMAZOO      LGT RAIN  63  59  87 S18G24    29.92R
LUDINGTON      RAIN      44  44 100 W5        29.86R
MARSHALL       LGT RAIN  61  60  98 S10G20    29.94R
MOUNT PLEASANT RAIN      57  56  97 S10       29.83S
MUSKEGON       LGT RAIN  54  51  90 SW10      29.90R FOG
SOUTH HAVEN    RAIN      54  53  95 W12G18    29.94R
$$
MIZ016>042-202300-
NORTHERN LOWER MICHIGAN

CITY           SKY/WX    TMP DP  RH WIND       PRES   REMARKS
ALPENA         LGT RAIN  55  53  93 SW5       29.84R
BEAVER ISLAND  LGT RAIN  34  34  99 W13       29.82S WCI  25
BELLAIRE       LGT SNOW  46  46 100 NW6       29.82R
CADILLAC       RAIN      52  52  99 SW9       29.85R
CHARLEVOIX     RAIN      38  38 100 W7        29.86S WCI  32
FRANKFORT      RAIN      40  40 100 W3        29.85R
GAYLORD        LGT RAIN  50  50 100 SW10G18   29.81R VSB 3/4
GRAYLING       LGT RAIN  52  52  99 CALM      29.82S VSB 1/2
HARBOR SPRINGS LGT RAIN  38  37  99 SW5       29.83S WCI  34
HOUGHTON LAKE  RAIN      52  52 100 W7        29.86R VSB 1/2
MANISTEE       RAIN      40  39  97 W7        29.86R
OSCODA         CLOUDY    54  53  97 SW10      29.85R FOG
PELLSTON       LGT RAIN  40  40 100 SW5       29.82S FOG
ROGERS CITY    CLOUDY    39  37  93 N5        29.83R
TRAVERSE CITY  LGT RAIN  53  51  93 W6        29.81R
$$
MIZ007>008-015-202300-
EASTERN UPPER MICHIGAN

CITY           SKY/WX    TMP DP  RH WIND       PRES   REMARKS
KINROSS        MIX PCPN  29  29 100 E6        29.82R FOG     WCI  23
MACKINAC ISLAN MIX PCPN  32  32 100 S3        29.82R
NEWBERRY       CLOUDY    34  33  96 SW6       29.80R FOG     WCI  29
S. S. MARIE    FOG       31  30  96 E6        29.81R VSB 1   WCI  25
MUNISING         N/A     31  31 100 SW3       29.80R
$$
MIZ004>006-011>014-085-202300-
CENTRAL UPPER MICHIGAN

CITY           SKY/WX    TMP DP  RH WIND       PRES   REMARKS
MANISTIQUE     CLOUDY    33  32  96 W8        29.81R WCI  26
ESCANABA       CLOUDY    32  30  92 W3        29.82R
MENOMINEE      FOG       33  31  92 W3        29.84R VSB 3/4
SAWYER-GWINN   CLOUDY    28  27  93 W5        29.78R WCI  23
$$
MIZ001>003-009>011-084-202300-
WESTERN UPPER MICHIGAN

CITY           SKY/WX    TMP DP  RH WIND       PRES   REMARKS
IRON MOUNTAIN  CLOUDY    32  28  85 W8        29.79R WCI  25
HOUGHTON       LGT SNOW  24  20  84 NW15      29.81R FOG     WCI  11
COPPER HARBOR    N/A     26  23  88 N17       29.82R WCI  13
IRONWOOD       LGT SNOW  19  17  92 W9        29.90R FOG     WCI   8
$$

ABBREVIATIONS USED IN REMARKS
   TC - TEMPERATURE IN CELSIUS
  WCI - WIND CHILL INDEX
   HX - HEAT INDEX
  VSB - VISIBILITY




USA.gov is the U.S. government's official web portal to all federal, state and local government web resources and services.